User: anonymous   Login
Location: Budapest
(47.4979°N, 19.0402°E)
Time: 01:34:29
(UTC+01:00)
Language:

Tiangong 2 - Orbit

View from above orbital plane
View from above orbital plane
View from above satellite
View from above satellite

Ground track
Ground track

The orbit data is extracted from the following two-line orbital elements,

1 41765U 16057A   17345.47206815  .00003866  00000-0  51480-4 0  9990
2 41765  42.7854  21.2985 0002909   4.0787 130.4957 15.59786529 70652
Epoch (UTC): 11 December 2017 11:19:46
Eccentricity: 0.0002909
inclination: 42.7854°
perigee height: 386 km
apogee height: 390 km
right ascension of ascending node: 21.2985°
argument of perigee: 4.0787°
revolutions per day: 15.59786529
mean anomaly at epoch: 130.4957°
orbit number at epoch: 7065

The dashed part of the orbit path shows where the satellite is in the earth's shadow,  

DLR